[[{"header":{"parameterUnit":"m.s-1","parameterCategory":1,"la1":30.2991,"la2":30.254,"lo1":-89.0895,"lo2":-89.0444,"dy":0.0017,"dx":0.0017,"nx":28,"ny":28,"refTime":"2023-08-12T21:00:00:Z","depth":0,"parameterNumber":2,"parameterNumberName":"U-component_of_WINDS"},"data":[0,0,0,0,0,0,0,0,0,0,0,0,0,0,0,0,0,0,0,0,0,0,0,0,0,0,0,0,0,0,0,0,0,0,0,0,0,0,0,0,0,0,0,0,0,0,0,0,0,0,0,0,0,0,0,0,0,0,2.1153,2.1154,0,2.1267,2.1268,2.1269,2.1235,2.1232,2.123,2.1228,2.1351,2.1356,2.1362,0,0,0,0,0,0,0,0,0,0,0,0,0,2.0912,2.0917,2.1153,2.1154,2.1156,2.1266,2.1268,2.127,2.1235,2.1232,2.1229,2.1227,2.1349,2.1355,2.1362,0,0,0,0,0,0,0,0,0,0,0,0,0,2.1021,2.0919,2.1153,2.1152,2.1153,2.1266,2.1268,2.127,2.1236,2.1232,2.1229,2.1225,2.1347,2.1355,2.1363,2.1486,0,0,2.1388,2.1392,0,0,0,0,0,0,0,0,2.1015,2.103,2.1151,2.1152,2.1153,2.1233,2.1228,2.1343,2.1237,2.1205,2.1228,2.1223,2.1315,2.1325,2.1355,2.1492,2.1497,2.1389,2.1394,2.1398,2.14,0,0,0,0,0,0,0,2.1007,2.1025,2.1198,2.1152,2.1154,2.1148,2.1159,2.125,2.1279,2.1207,2.1205,2.1218,2.1315,2.1347,2.1358,2.1499,2.1389,2.1396,2.1401,2.1404,2.1744,2.1748,0,0,0,0,0,0,2.0998,2.1019,2.1195,2.1202,2.1074,2.1155,2.1168,2.1211,2.1278,2.1284,2.1221,2.1216,2.1335,2.1348,2.1362,2.1511,2.1397,2.1405,2.141,2.174,2.1745,2.1749,0,0,0,0,0,0,2.0993,2.1014,2.119,2.111,2.1131,2.1163,2.1212,2.1215,2.1247,2.1288,2.1294,2.1248,2.1332,2.135,2.1455,2.1514,2.1409,2.1417,2.1735,2.1741,2.1747,2.1809,0,0,0,0,0,0,2.0986,2.1012,2.1058,2.1111,2.1136,2.128,2.1215,2.122,2.1261,2.1255,2.1315,2.1322,2.1331,2.1443,2.1463,2.1524,2.1423,2.173,2.1738,2.1745,2.1802,2.1817,2.1829,0,0,0,0,0,2.0978,2.1072,2.106,2.1082,2.1193,2.1283,2.1298,2.1304,2.1265,2.1313,2.1339,2.132,2.1504,2.1454,2.1477,2.1541,2.1726,2.1735,2.1744,2.1796,2.1814,2.1829,0,0,0,0,0,0,2.1028,2.1079,2.1066,2.118,2.1227,2.1277,2.1336,2.1323,2.1384,2.1376,2.1384,2.1398,2.1506,2.1534,2.1477,2.1664,2.161,2.1624,2.1641,2.1659,2.1672,2.1663,2.143,0,0,0,0,0,2.1052,2.1118,2.116,2.1257,2.1281,2.1305,2.1344,2.1345,2.1395,2.1416,2.145,2.1501,2.157,2.1616,2.1682,2.1806,2.1819,2.1861,2.1875,2.1886,2.1898,2.1966,2.1985,2.1779,2.1779,2.1779,0,0,2.1103,2.1139,2.1181,2.1268,2.1305,2.1375,2.1322,2.1399,2.1452,2.1428,2.1528,2.1556,2.1613,2.1728,2.178,2.1755,2.1958,2.1897,2.1906,2.1912,2.1977,2.1997,2.2014,2.1785,2.1784,2.1783,0,0,2.1231,2.1265,2.1349,2.1387,2.1442,2.1457,2.1477,2.1529,2.1545,2.1646,2.1629,2.1694,2.1813,2.1855,2.1892,2.2037,2.2021,2.2058,2.2129,2.2196,2.2212,2.2226,2.2279,2.2297,2.207,2.207,2.2071,0,2.1288,2.1392,2.1395,2.1473,2.1513,2.1492,2.1579,2.1615,2.1691,2.1719,2.1689,2.1838,2.1875,2.2,2.2035,2.2065,2.209,2.2052,2.2209,2.2224,2.2237,2.2287,2.2307,2.2075,2.2074,2.2074,2.2073,0,2.146,2.1532,2.1594,2.1664,2.1711,2.1793,2.1811,2.1858,2.1855,2.1874,2.1978,2.2022,2.2096,2.2126,2.2125,2.2251,2.2233,2.2206,2.2152,2.2261,2.2308,2.2327,2.208,2.2079,2.2078,2.2077,0,0,2.1623,2.1694,2.1716,2.1748,2.1808,2.1865,2.1947,2.2018,2.2059,2.2112,2.2182,2.2283,2.2258,2.23,2.2304,2.2362,2.2474,2.2327,2.2329,2.2353,2.2617,2.2637,2.2659,2.2464,2.2468,2.2471,2.2612,0,2.1757,2.1899,2.1904,2.2034,2.2102,2.2083,2.2155,2.2201,2.2221,2.2283,2.2306,2.2378,2.2339,2.2364,2.2421,2.2448,2.2527,2.2438,2.2531,2.2534,2.2517,2.2683,2.2705,2.2836,2.263,2.2633,2.2635,0,2.1932,2.1988,2.2124,2.2174,2.2203,2.2267,2.2333,2.2392,2.2444,2.2454,2.2501,2.2496,2.2582,2.2525,2.2644,2.2584,2.2622,2.2642,2.2647,2.2656,2.2592,2.2697,2.2877,2.2897,2.2664,2.2662,2.266,0,2.2038,2.2148,2.2243,2.2271,2.2332,2.2378,2.2405,2.2453,2.2496,2.2554,2.2582,2.2651,2.2688,2.2742,2.2757,2.2714,2.2876,2.282,2.2889,2.2889,2.2924,2.2922,2.3114,2.2949,2.2949,2.2948,2.2948,0,2.2187,2.2271,2.2292,2.2351,2.2445,2.2452,2.2546,2.2571,2.2614,2.2679,2.2668,2.2729,2.2744,2.281,2.2822,2.2919,2.2937,2.2949,2.2951,2.295,2.2948,2.2975,2.2967,2.2954,2.2952,2.2951,2.295,0,2.2321,2.2338,2.2441,2.249,2.2504,2.2572,2.2614,2.2672,2.269,2.2773,2.2793,2.2823,2.2899,2.2918,2.301,2.3018,2.3133,2.3127,2.3115,2.3115,2.3182,2.3176,2.3398,2.3428,2.3244,2.3246,2.3247,0,2.2415,2.2479,2.2534,2.2576,2.2605,2.2673,2.2715,2.2725,2.277,2.2834,2.2885,2.2959,2.3019,2.3142,2.3173,2.3243,2.3239,2.3312,2.3249,2.3246,2.324,2.3236,2.3243,2.3324,2.3326,2.3327,2.3329,0,2.258,2.2585,2.2646,2.2711,2.2762,2.2814,2.2863,2.2898,2.2915,2.2967,2.3043,2.309,2.3182,2.3257,2.3328,2.3358,2.3347,2.3348,2.3368,2.3367,2.3357,2.3364,2.3148,2.3343,2.3342,2.334,2.334,2.3339,2.2698,2.2754,2.2801,2.287,2.2907,2.2954,2.301,2.3035,2.3099,2.3173,2.3176,2.3259,2.3311,2.3404,2.3439,2.3505,2.3484,2.3512,2.3519,2.3526,2.3532,2.3347,2.3519,2.3518,2.3518,2.3517,2.3517,0,2.2862,2.2891,2.2954,2.3023,2.3078,2.306,2.3114,2.3161,2.3234,2.3282,2.3341,2.3429,2.3501,2.3538,2.361,2.3657,2.3653,2.3675,2.3672,2.368,2.3547,2.3523,2.3677,2.3677,2.3677,2.3677,2.3677,2.3677,2.2954,2.3048,2.3059,2.3173,2.3202,2.3282,2.3315,2.3358,2.3396,2.3495,2.3554,2.3576,2.362,2.3695,2.3761,2.377,2.3798,2.3823,2.3829,2.3705,2.3689,2.3673,2.3651,2.3828,2.3829,2.3956,2.3957,2.3958]},{"header":{"parameterUnit":"m.s-1","parameterCategory":1,"la1":30.2991,"la2":30.254,"lo1":-89.0895,"lo2":-89.0444,"dy":0.0017,"dx":0.0017,"nx":28,"ny":28,"refTime":"2023-08-12T21:00:00:Z","depth":0,"parameterNumber":3,"parameterNumberName":"V-component_of_WINDS"},"data":[0,0,0,0,0,0,0,0,0,0,0,0,0,0,0,0,0,0,0,0,0,0,0,0,0,0,0,0,0,0,0,0,0,0,0,0,0,0,0,0,0,0,0,0,0,0,0,0,0,0,0,0,0,0,0,0,0,0,3.0114,3.0115,0,3.0165,3.0166,3.0166,3.0218,3.0218,3.0219,3.022,3.0268,3.0269,3.0269,0,0,0,0,0,0,0,0,0,0,0,0,0,3.0055,3.0056,3.0114,3.0115,3.0115,3.0165,3.0166,3.0167,3.0218,3.0218,3.0219,3.022,3.0268,3.0269,3.0269,0,0,0,0,0,0,0,0,0,0,0,0,0,3.0091,3.0057,3.0114,3.0147,3.015,3.0165,3.0166,3.0167,3.0217,3.0219,3.022,3.0221,3.0268,3.0268,3.0269,3.0254,0,0,3.0272,3.0273,0,0,0,0,0,0,0,0,3.0089,3.0093,3.0142,3.0145,3.0149,3.0186,3.0163,3.0196,3.0217,3.0192,3.022,3.0221,3.024,3.0243,3.025,3.0257,3.0259,3.0272,3.0273,3.0273,3.0274,0,0,0,0,0,0,0,3.0086,3.0091,3.0134,3.0142,3.0146,3.0157,3.0164,3.0169,3.0209,3.0194,3.0198,3.0204,3.0242,3.0249,3.0252,3.0259,3.0272,3.0273,3.0274,3.0274,3.0252,3.0251,0,0,0,0,0,0,3.008,3.0089,3.0133,3.0136,3.0121,3.0158,3.0165,3.0173,3.0209,3.0216,3.0203,3.0206,3.0247,3.025,3.0254,3.0236,3.0273,3.0274,3.0275,3.0254,3.0252,3.0251,0,0,0,0,0,0,3.0078,3.0083,3.0131,3.0113,3.012,3.0158,3.0167,3.0174,3.0181,3.0216,3.0223,3.0203,3.0248,3.0252,3.0253,3.0238,3.0275,3.0276,3.0255,3.0253,3.0252,3.0202,0,0,0,0,0,0,3.0076,3.0082,3.0078,3.0113,3.0121,3.0131,3.0166,3.0174,3.0183,3.0188,3.0218,3.0224,3.0249,3.0252,3.0254,3.024,3.0276,3.0256,3.0254,3.0252,3.0205,3.0198,3.0193,0,0,0,0,0,3.0074,3.0062,3.0078,3.0083,3.0117,3.013,3.0134,3.0165,3.0182,3.0177,3.0199,3.0223,3.024,3.0251,3.0255,3.0241,3.0257,3.0255,3.0252,3.0207,3.02,3.0193,0,0,0,0,0,0,3.0024,3.0067,3.0085,3.0085,3.0103,3.0139,3.0134,3.0156,3.017,3.0173,3.0209,3.0215,3.0211,3.0227,3.0238,3.0226,3.0252,3.025,3.0217,3.021,3.0204,3.0199,3.0277,0,0,0,0,0,3.0013,3.0021,3.0058,3.0054,3.0062,3.0096,3.0103,3.0125,3.0145,3.0153,3.0175,3.0192,3.0202,3.0207,3.0217,3.0208,3.0213,3.02,3.0194,3.0189,3.0186,3.0179,3.0172,3.0243,3.0243,3.0243,0,0,2.999,3.0014,3.0017,3.0044,3.0061,3.0067,3.0102,3.0108,3.0112,3.0153,3.0155,3.0172,3.0194,3.0189,3.0188,3.0201,3.0168,3.0186,3.0181,3.0181,3.0176,3.0169,3.0163,3.0241,3.0241,3.0241,0,0,2.995,2.9971,2.9968,2.9985,3.001,3.0033,3.0032,3.0064,3.0076,3.0079,3.011,3.0114,3.013,3.0143,3.0152,3.0116,3.0137,3.0118,3.0086,3.0079,3.0074,3.0069,3.0053,3.0048,3.0115,3.0115,3.0115,0,2.9918,2.993,2.9964,2.9967,2.9976,3.0015,3.0011,3.0025,3.0052,3.0056,3.0072,3.009,3.0108,3.0105,3.0096,3.0103,3.0101,3.0114,3.0072,3.0068,3.0064,3.0049,3.0043,3.0113,3.0113,3.0113,3.0113,0,2.9887,2.9894,2.9889,2.9914,2.9923,2.9923,2.9955,2.996,2.998,3.0,3.0001,3.0023,3.0037,3.0039,3.0059,3.0038,3.0045,3.0066,3.0092,3.0054,3.004,3.0035,3.0109,3.011,3.011,3.0111,0,0,2.9817,2.9861,2.9858,2.9869,2.9899,2.9904,2.9904,2.9919,2.9921,2.9938,2.9937,2.9949,2.9968,2.9978,2.9999,2.9993,2.9959,3.0015,3.0015,3.0001,2.9934,2.9917,2.991,2.9975,2.9974,2.9973,2.9932,0,2.9781,2.9785,2.9814,2.9808,2.9814,2.985,2.9849,2.9866,2.9885,2.9891,2.9911,2.9917,2.9943,2.9948,2.9944,2.9964,2.9946,2.9968,2.9972,2.9971,2.9963,2.9904,2.9886,2.9845,2.9927,2.9926,2.9926,0,2.974,2.9754,2.9748,2.9776,2.978,2.9779,2.9794,2.98,2.9819,2.9832,2.9843,2.9867,2.9867,2.9892,2.9891,2.9905,2.9908,2.9918,2.9917,2.9917,2.9944,2.9899,2.9833,2.9826,2.9918,2.9919,2.9919,0,2.9686,2.9704,2.9702,2.9711,2.9744,2.9742,2.9756,2.9776,2.9783,2.9795,2.9799,2.9811,2.9817,2.9825,2.9851,2.9868,2.9845,2.9874,2.9854,2.9853,2.9846,2.9845,2.9777,2.9852,2.9852,2.9852,2.9852,0,2.9641,2.9635,2.9678,2.9677,2.9671,2.9704,2.9697,2.9714,2.9731,2.9732,2.9765,2.9764,2.98,2.9803,2.9824,2.9818,2.9821,2.983,2.9835,2.9826,2.9824,2.9826,2.9829,2.985,2.9851,2.9851,2.9851,0,2.9579,2.9608,2.9608,2.9639,2.9647,2.9641,2.9667,2.9666,2.9686,2.9686,2.9688,2.9719,2.9725,2.9752,2.9764,2.9777,2.9763,2.9775,2.9756,2.9759,2.9737,2.9737,2.9666,2.9657,2.9739,2.9739,2.9738,0,2.9548,2.9544,2.9575,2.9578,2.959,2.9595,2.9601,2.9634,2.9639,2.9659,2.9655,2.9663,2.9671,2.9677,2.97,2.9708,2.9719,2.9693,2.972,2.971,2.9715,2.9714,2.9712,2.9686,2.9685,2.9685,2.9684,0,2.9487,2.9501,2.951,2.9522,2.9529,2.954,2.9553,2.9554,2.9589,2.9593,2.9599,2.9605,2.9617,2.9623,2.9635,2.9647,2.967,2.9676,2.9671,2.966,2.9648,2.9651,2.9737,2.9676,2.9677,2.9678,2.9678,2.9678,2.9438,2.9435,2.9456,2.9463,2.9476,2.9487,2.9487,2.9507,2.9513,2.9525,2.9544,2.9546,2.9563,2.9582,2.9592,2.9593,2.9607,2.9601,2.9599,2.9596,2.959,2.965,2.9596,2.9596,2.9597,2.9597,2.9597,0,2.9376,2.9391,2.9398,2.9415,2.942,2.9443,2.9458,2.946,2.9462,2.9477,2.9484,2.9489,2.9495,2.9518,2.9526,2.9522,2.9533,2.9523,2.9522,2.9524,2.9579,2.9581,2.9514,2.9514,2.9514,2.9514,2.9514,2.9514,2.9345,2.9341,2.9357,2.9358,2.9373,2.9376,2.9383,2.9392,2.9404,2.9408,2.9414,2.9429,2.9446,2.9455,2.9461,2.9467,2.9467,2.9453,2.9462,2.9513,2.9521,2.9528,2.953,2.9454,2.9453,2.9407,2.9406,2.9406]}]]